Location: Brantley
(31.5822°N, 86.2569°W)
Time: 18:57:56
(UTC+00:00)

Vanguard 2 - Pass Details

Date: 22 February 2026
Orbit: 553 x 2896 km, 32.9° (Epoch: 10 March)

Event Time Altitude Azimuth Distance (km) Brightness Sun altitude
Rises 13:21:34 0° 280° (W) 3,405 10.2 11.9°
Reaches altitude 10° 13:24:25 10° 280° (W) 2,223 9.3 12.5°
Maximum altitude 13:29:16 89° 197° (SSW) 596 7.3 13.4°
Drops below altitude 10° 13:33:13 10° 102° (ESE) 1,819 11.9 14.2°
Sets 13:35:21 0° 102° (ESE) 2,724 12.2 14.6°
